STARLINK-31686, 59579

Orbit data source: Space-Track

STARLINK-31686, 59579 is a payload satellite owned by SpaceX/Seattle (US) in LEO that was launched on Tue, 23 Apr 2024 UTC via an FALCON 9 launch vehicle from the Air Force Eastern Test Range (AFETR). Payload-class satellites include a variety of spacecraft equipped with specific instruments for various scientific and technological missions. These include communications satellites like Starlink; space stations such as the ISS; scientific satellites like the Hubble; Earth observation satellites from companies like Planet Labs, Umbra, and HawkEye 360; GPS; miniature CubeSats for education and research; and military/defense satellites.

Loading next visibility...
Identifier
59579, 2024-076R
Orbit
LEO
Country
Flag of USUS
Related business
Manufacturer
SpaceX/Seattle
Mission
Operational Commercial Communications
Bus & Motor
STARLINK V2M, Unknown motor
Mass
730 kg wet, ~700 kg dry
Launch date (UTC)
2024-04-23 (1 year ago)
Launch vehicle
FALCON 9
Launch site
Air Force Eastern Test Range (AFETR)
Object type
Payload
Rocket body
Debris
Shape & HBR
Box + 2 Pan, 17.7 m
Radar Cross Section
33.884 m², Large (>1 m²)

Expand to show TLE details & history
Last TLE update: 14 hours ago

TLE from 14 hours ago
0 STARLINK-31686
1 59579U 24076R   25288.90693390  .00006148  00000-0  23244-3 0  9995
2 59579  43.0023 106.3354 0001612 267.6543  92.4124 15.27622586 84361
Epoch: 2025-10-15T21:45Z
TLE epoch observation values (Epoch: 2025-10-15T21:45:59.088Z)
Latitude
-0.00005°
Longitude
115.16487°
Altitude
482.744 km
Speed
7.626 km/s
True Right ascension
07h 05m 20s
True Declination
0° 00' 00"
Sunlit
Object was in daylight at epoch
Visualization orbit readout
Latitude
Unknown
Longitude
Unknown
Altitude
Unknown
Speed
Unknown
Apparent Right ascension
Unknown
Apparent Declination
Unknown
Sunlit
N/A
Visualization observer readout
Local Sidereal Time
06:01:56
Azimuth
Unknown
Elevation
Unknown
Doppler factor
Unknown
Orbital elements
Apogee altitude
485.973 km
Perigee altitude
483.76 km
Semi-major axis
6,863.003 km
Eccentricity
0.00016
Inclination
43.0023°
RAAN
106.3354°
Arg. of periapsis
267.6543°
True anomaly
92.43086°
Mean anomaly
92.4124°
Eccentric anomaly
92.42163°
Mean motion
3.81744 °/min
Orbital period
94.3 mins
BSTAR
0.00023244
Loading maneuver chart data...
Computing Atmospheric mass density...
Loading historical data...
Loading historical data...
Loading historical data...
Loading historical data...
Loading historical data...
Loading historical data...
Loading historical data...

Documentation

Showing up to 5 results
|